Date,TemperatureHighF,TemperatureAvgF,TemperatureLowF,DewpointHighF,DewpointAvgF,DewpointLowF,HumidityHigh,HumidityAvg,HumidityLow,PressureMaxIn,PressureMinIn,WindSpeedMaxMPH,WindSpeedAvgMPH,GustSpeedMaxMPH,PrecipitationSumIn
2013-2-1,1,-4,-12,-11,-18,-24,65,52,31,0.00,40.00,6,3,15,0.00
2013-2-2,13,3,-3,-9,-11,-16,62,54,27,0.00,40.00,5,2,10,0.03
2013-2-3,15,6,-2,-2,-6,-11,68,58,35,0.00,40.00,6,2,15,0.00
2013-2-4,17,5,-2,-5,-9,-18,66,56,22,0.00,40.00,4,0,10,0.00
2013-2-5,24,13,0,12,3,-10,72,64,48,0.00,40.00,7,2,21,0.38
2013-2-6,25,11,-8,16,3,-16,78,71,43,0.00,40.00,5,2,12,0.00
2013-2-7,28,25,22,22,18,14,82,78,67,0.00,40.00,6,3,14,0.81
2013-2-8,27,16,4,14,3,-6,72,58,25,0.00,40.00,7,-13,14,0.00
2013-2-9,25,16,-2,17,8,-9,75,72,66,0.00,40.00,5,2,13,0.42
2013-2-10,37,30,24,33,24,17,84,79,67,0.00,40.00,11,6,20,0.35
2013-2-11,36,31,24,31,24,10,84,74,54,0.00,40.00,11,5,24,1.11
2013-2-12,28,21,16,13,9,4,77,60,36,0.00,40.00,6,2,14,0.00
2013-2-13,37,25,12,24,15,6,79,68,34,0.00,40.00,3,1,7,0.00
2013-2-14,32,30,16,26,21,0,82,72,45,0.00,40.00,9,4,22,8.20
2013-2-15,22,11,-3,2,-4,-13,69,53,29,0.00,40.00,6,2,14,0.00
2013-2-16,20,2,-12,-6,-13,-20,68,53,22,0.00,40.00,6,-32,12,0.00
2013-2-17,21,1,-19,1,-16,-28,65,48,21,0.00,40.00,8,2,14,0.00
2013-2-18,42,29,20,26,16,3,80,60,35,0.00,40.00,9,4,19,0.37
2013-2-19,25,15,3,18,3,-14,78,61,34,0.00,40.00,9,6,21,1.51
2013-2-20,25,8,-3,-1,-8,-13,70,51,24,0.00,40.00,9,4,18,0.00
2013-2-21,25,12,-7,15,0,-14,75,59,37,0.00,40.00,10,3,21,0.00
2013-2-22,29,25,21,21,18,13,81,74,65,0.00,40.00,9,4,24,4.82
2013-2-23,30,25,21,21,16,12,82,71,47,0.00,40.00,6,2,14,0.36
2013-2-24,35,26,13,18,15,8,77,65,35,0.00,40.00,5,2,10,0.00
2013-2-25,36,24,10,19,14,5,78,66,41,0.00,40.00,3,1,6,0.12
2013-2-26,36,27,15,21,16,9,81,65,39,0.00,40.00,10,4,21,0.00
2013-2-27,35,31,29,24,20,14,75,63,52,0.00,40.00,9,6,21,0.71
2013-2-28,32,29,23,19,13,4,64,51,39,0.00,40.00,7,5,20,0.00